Location: Clanezzo
(45.7500°N, 9.6000°E)
Time: 11:49:26
(UTC+00:00)

KKS-1 - Visible Passes

Search period start: 28 June 2022 00:00
Search period end: 08 July 2022 00:00
Orbit: 636 x 647 km, 98.2° (Epoch: 28 June)

Date Brightness Start Highest point End Pass type
(mag) Time Alt. Az. Time Alt. Az. Time Alt. Az.
28 Jun ? 20:34:51 10° NE 20:38:30 24° E 20:40:48 16° SE visible
28 Jun ? 22:10:59 10° N 22:15:07 37° WNW 22:18:25 15° SW visible
29 Jun ? 20:58:23 10° NNE 21:02:39 41° E 21:05:03 22° SSE visible
29 Jun ? 22:35:25 10° NNW 22:38:55 23° WNW 22:42:25 10° WSW visible
30 Jun ? 21:22:13 10° NNE 21:26:42 72° ESE 21:29:18 25° S visible
30 Jun ? 23:00:15 10° NNW 23:02:39 14° WNW 23:05:02 10° W visible
01 Jul ? 20:11:24 10° ENE 20:13:43 14° E 20:15:55 10° ESE visible
01 Jul ? 21:46:13 10° N 21:50:41 65° WNW 21:53:32 21° SSW visible
02 Jul ? 20:34:20 10° NE 20:37:57 24° E 20:40:10 16° SE visible
02 Jul ? 22:10:25 10° N 22:14:34 38° WNW 22:17:47 15° SW visible
03 Jul ? 20:57:51 10° NNE 21:02:05 40° E 21:04:24 23° SSE visible
03 Jul ? 22:34:50 10° NNW 22:38:23 23° WNW 22:41:54 10° WSW visible
04 Jul ? 21:21:40 10° NNE 21:26:08 71° ESE 21:28:38 26° S visible
04 Jul ? 22:59:38 10° NNW 23:02:06 15° WNW 23:04:33 10° W visible
05 Jul ? 20:10:55 10° ENE 20:13:08 13° E 20:15:15 10° ESE visible
05 Jul ? 21:45:40 10° N 21:50:07 67° WNW 21:52:51 23° SSW visible
06 Jul ? 20:33:48 10° NE 20:37:22 23° E 20:39:28 17° SE visible
06 Jul ? 22:09:51 10° N 22:14:01 39° WNW 22:17:05 16° SW visible
07 Jul ? 20:57:18 10° NNE 21:01:30 39° E 21:03:42 23° SSE visible
07 Jul ? 22:34:14 10° NNW 22:37:49 24° WNW 22:41:18 10° WSW visible
